Data No, UTC Date,UTC Time,Latitude,Longitude,Course(deg),Temp(degC),Sal(psu)
566,2021/2/27,9:25,42-36.81N,141-36.92E,211,3.446,32.5502
567,2021/2/27,9:26,42-36.58N,141-36.80E,193,3.456,32.5701
568,2021/2/27,9:27,42-36.31N,141-36.86E,161,3.452,32.6498
569,2021/2/27,9:28,42-36.08N,141-37.09E,135,3.432,32.7021
570,2021/2/27,9:29,42-35.88N,141-37.41E,129,3.459,32.7502
571,2021/2/27,9:30,42-35.69N,141-37.73E,128,3.419,32.79
572,2021/2/27,9:31,42-35.48N,141-38.08E,129,3.422,32.8184
573,2021/2/27,9:32,42-35.27N,141-38.41E,130,3.427,32.8619
574,2021/2/27,9:33,42-35.05N,141-38.75E,131,3.463,32.8985
575,2021/2/27,9:34,42-34.83N,141-39.10E,131,3.388,32.9468
576,2021/2/27,9:35,42-34.61N,141-39.44E,131,3.111,32.9608
577,2021/2/27,9:36,42-34.37N,141-39.80E,131,3.03,32.9585
578,2021/2/27,9:37,42-34.15N,141-40.15E,131,2.943,32.9337
579,2021/2/27,9:38,42-33.91N,141-40.50E,131,2.92,32.9146
580,2021/2/27,9:39,42-33.68N,141-40.86E,131,2.863,32.9072
581,2021/2/27,9:40,42-33.45N,141-41.22E,131,2.687,32.8929
582,2021/2/27,9:41,42-33.21N,141-41.59E,131,2.593,32.8624
583,2021/2/27,9:42,42-32.98N,141-41.95E,131,2.536,32.8239
584,2021/2/27,9:43,42-32.73N,141-42.31E,131,2.498,32.8013
585,2021/2/27,9:44,42-32.49N,141-42.69E,131,2.446,32.7798
586,2021/2/27,9:45,42-32.25N,141-43.05E,131,2.415,32.7609
587,2021/2/27,9:46,42-32.00N,141-43.43E,131,2.38,32.7575
588,2021/2/27,9:47,42-31.76N,141-43.80E,131,2.356,32.7419
589,2021/2/27,9:48,42-31.51N,141-44.18E,131,2.332,32.7367
590,2021/2/27,9:49,42-31.25N,141-44.57E,131,2.319,32.728
591,2021/2/27,9:50,42-31.00N,141-44.94E,132,2.289,32.7253
592,2021/2/27,9:51,42-30.74N,141-45.34E,131,2.248,32.7263
593,2021/2/27,9:52,42-30.49N,141-45.72E,131,2.199,32.7127
594,2021/2/27,9:53,42-30.23N,141-46.11E,131,2.191,32.6998
595,2021/2/27,9:54,42-29.97N,141-46.50E,132,2.226,32.6952
596,2021/2/27,9:55,42-29.71N,141-46.89E,132,2.25,32.684
597,2021/2/27,9:56,42-29.44N,141-47.28E,132,2.258,32.6984
598,2021/2/27,9:57,42-29.19N,141-47.66E,132,2.256,32.7049
599,2021/2/27,9:58,42-28.93N,141-48.05E,132,2.265,32.6984
600,2021/2/27,9:59,42-28.66N,141-48.44E,132,2.321,32.7054
601,2021/2/27,10:00,42-28.40N,141-48.82E,132,2.367,32.7059
602,2021/2/27,10:01,42-28.13N,141-49.22E,132,2.354,32.728
603,2021/2/27,10:02,42-27.89N,141-49.61E,128,2.158,32.7308
604,2021/2/27,10:03,42-27.65N,141-50.02E,129,1.669,32.7309
605,2021/2/27,10:04,42-27.39N,141-50.42E,131,1.536,32.6554
606,2021/2/27,10:05,42-27.13N,141-50.80E,132,1.446,32.5632
607,2021/2/27,10:06,42-26.86N,141-51.20E,132,1.391,32.5185
608,2021/2/27,10:07,42-26.57N,141-51.63E,132,1.319,32.4858
609,2021/2/27,10:08,42-26.30N,141-52.01E,132,1.185,32.4689
610,2021/2/27,10:09,42-26.08N,141-52.38E,129,1.058,32.4521
611,2021/2/27,10:10,42-25.85N,141-52.77E,128,0.991,32.4163
612,2021/2/27,10:11,42-25.61N,141-53.19E,127,0.927,32.3974
613,2021/2/27,10:12,42-25.38N,141-53.60E,126,0.892,32.3724
614,2021/2/27,10:13,42-25.15N,141-54.03E,125,0.982,32.3642
615,2021/2/27,10:14,42-24.93N,141-54.46E,125,1.037,32.3592
616,2021/2/27,10:15,42-24.71N,141-54.88E,125,1.052,32.3609
617,2021/2/27,10:16,42-24.48N,141-55.31E,125,1.08,32.3733
618,2021/2/27,10:17,42-24.26N,141-55.73E,125,1.102,32.3691
619,2021/2/27,10:18,42-24.03N,141-56.16E,125,1.092,32.3805
620,2021/2/27,10:19,42-23.80N,141-56.59E,125,1.072,32.3785
621,2021/2/27,10:20,42-23.58N,141-57.01E,125,1.051,32.3785
622,2021/2/27,10:21,42-23.35N,141-57.44E,125,1.009,32.3815
623,2021/2/27,10:22,42-23.13N,141-57.86E,125,0.968,32.3737
624,2021/2/27,10:23,42-22.90N,141-58.29E,125,0.908,32.3603
625,2021/2/27,10:24,42-22.67N,141-58.72E,126,0.804,32.3593
626,2021/2/27,10:25,42-22.44N,141-59.13E,126,0.754,32.3428
627,2021/2/27,10:26,42-22.21N,141-59.56E,125,0.737,32.3295
628,2021/2/27,10:27,42-21.99N,141-59.98E,125,0.697,32.319
629,2021/2/27,10:28,42-21.77N,142-00.40E,125,0.65,32.306
630,2021/2/27,10:29,42-21.54N,142-00.83E,125,0.599,32.3011
631,2021/2/27,10:30,42-21.32N,142-01.25E,125,0.561,32.2802
632,2021/2/27,10:31,42-21.09N,142-01.68E,125,0.557,32.2766
633,2021/2/27,10:32,42-20.87N,142-02.09E,125,0.56,32.2616
634,2021/2/27,10:33,42-20.64N,142-02.51E,125,0.567,32.267
635,2021/2/27,10:34,42-20.41N,142-02.94E,126,0.575,32.2575
636,2021/2/27,10:35,42-20.19N,142-03.35E,126,0.576,32.2578
637,2021/2/27,10:36,42-19.96N,142-03.77E,125,0.565,32.2585
638,2021/2/27,10:37,42-19.74N,142-04.19E,126,0.555,32.2638
639,2021/2/27,10:38,42-19.52N,142-04.61E,126,0.557,32.266
640,2021/2/27,10:39,42-19.28N,142-05.03E,126,0.561,32.2637
641,2021/2/27,10:40,42-19.06N,142-05.44E,125,0.576,32.262
642,2021/2/27,10:41,42-18.84N,142-05.86E,125,0.577,32.2704
643,2021/2/27,10:42,42-18.62N,142-06.29E,122,0.58,32.2643
644,2021/2/27,10:43,42-18.43N,142-06.72E,121,0.594,32.275
645,2021/2/27,10:44,42-18.23N,142-07.17E,120,0.611,32.2691
646,2021/2/27,10:45,42-18.04N,142-07.61E,121,0.617,32.283
647,2021/2/27,10:46,42-17.84N,142-08.04E,120,0.615,32.2783
648,2021/2/27,10:47,42-17.65N,142-08.48E,121,0.606,32.2768
649,2021/2/27,10:48,42-17.45N,142-08.92E,121,0.612,32.281
650,2021/2/27,10:49,42-17.25N,142-09.37E,120,0.611,32.2694
651,2021/2/27,10:50,42-17.06N,142-09.80E,120,0.619,32.2731
652,2021/2/27,10:51,42-16.87N,142-10.24E,121,0.612,32.2714
653,2021/2/27,10:52,42-16.68N,142-10.69E,120,0.588,32.2586
654,2021/2/27,10:53,42-16.49N,142-11.12E,120,0.596,32.2607
655,2021/2/27,10:54,42-16.30N,142-11.56E,120,0.6,32.2432
656,2021/2/27,10:55,42-16.11N,142-11.99E,120,0.593,32.2312
657,2021/2/27,10:56,42-15.92N,142-12.43E,121,0.595,32.2248
658,2021/2/27,10:57,42-15.72N,142-12.87E,121,0.59,32.2138
659,2021/2/27,10:58,42-15.53N,142-13.30E,121,0.582,32.2169
660,2021/2/27,10:59,42-15.34N,142-13.74E,120,0.559,32.2061
661,2021/2/27,11:00,42-15.16N,142-14.17E,120,0.507,32.2068
662,2021/2/27,11:01,42-14.97N,142-14.61E,120,0.498,32.2103
663,2021/2/27,11:02,42-14.78N,142-15.05E,121,0.497,32.2
664,2021/2/27,11:03,42-14.59N,142-15.47E,120,0.487,32.2094
665,2021/2/27,11:04,42-14.40N,142-15.92E,120,0.482,32.1965
666,2021/2/27,11:05,42-14.21N,142-16.34E,120,0.48,32.2029
667,2021/2/27,11:06,42-14.03N,142-16.78E,120,0.466,32.2098
668,2021/2/27,11:07,42-13.83N,142-17.22E,120,0.455,32.2018
669,2021/2/27,11:08,42-13.65N,142-17.64E,120,0.439,32.2086
670,2021/2/27,11:09,42-13.46N,142-18.08E,120,0.413,32.2081
671,2021/2/27,11:10,42-13.28N,142-18.51E,119,0.382,32.2096
672,2021/2/27,11:11,42-13.10N,142-18.95E,120,0.377,32.2185
673,2021/2/27,11:12,42-12.91N,142-19.39E,120,0.387,32.22
674,2021/2/27,11:13,42-12.72N,142-19.82E,120,0.39,32.2251
675,2021/2/27,11:14,42-12.54N,142-20.27E,119,0.414,32.2135
676,2021/2/27,11:15,42-12.35N,142-20.70E,120,0.429,32.2304
677,2021/2/27,11:16,42-12.17N,142-21.14E,119,0.441,32.2271
678,2021/2/27,11:17,42-11.98N,142-21.59E,119,0.446,32.2362
679,2021/2/27,11:18,42-11.79N,142-22.02E,120,0.459,32.2312
680,2021/2/27,11:19,42-11.60N,142-22.47E,120,0.473,32.2433
681,2021/2/27,11:20,42-11.41N,142-22.90E,120,0.475,32.2356
682,2021/2/27,11:21,42-11.21N,142-23.37E,119,0.469,32.2349
683,2021/2/27,11:22,42-11.01N,142-23.85E,120,0.461,32.2376
684,2021/2/27,11:23,42-10.85N,142-24.23E,120,0.458,32.2304
685,2021/2/27,11:24,42-10.66N,142-24.67E,120,0.451,32.2339
686,2021/2/27,11:25,42-10.47N,142-25.10E,120,0.444,32.2242
687,2021/2/27,11:26,42-10.27N,142-25.54E,120,0.443,32.2153
688,2021/2/27,11:27,42-10.08N,142-25.99E,120,0.438,32.2199
689,2021/2/27,11:28,42-09.89N,142-26.42E,120,0.441,32.2151
690,2021/2/27,11:29,42-09.69N,142-26.87E,120,0.446,32.2201
691,2021/2/27,11:30,42-09.51N,142-27.31E,120,0.45,32.2164
692,2021/2/27,11:31,42-09.31N,142-27.75E,120,0.453,32.2283
693,2021/2/27,11:32,42-09.12N,142-28.20E,120,0.458,32.2156
694,2021/2/27,11:33,42-08.92N,142-28.64E,120,0.465,32.2273
695,2021/2/27,11:34,42-08.73N,142-29.09E,120,0.471,32.2224
696,2021/2/27,11:35,42-08.54N,142-29.53E,120,0.471,32.2211
697,2021/2/27,11:36,42-08.35N,142-29.97E,120,0.479,32.2309
698,2021/2/27,11:37,42-08.15N,142-30.42E,120,0.484,32.2181
699,2021/2/27,11:38,42-07.96N,142-30.86E,120,0.502,32.2243
700,2021/2/27,11:39,42-07.76N,142-31.31E,120,0.514,32.2132
701,2021/2/27,11:40,42-07.57N,142-31.74E,120,0.516,32.2123
702,2021/2/27,11:41,42-07.38N,142-32.19E,120,0.512,32.216
703,2021/2/27,11:42,42-07.19N,142-32.64E,120,0.515,32.2042
704,2021/2/27,11:43,42-06.99N,142-33.07E,120,0.521,32.2027
705,2021/2/27,11:44,42-06.80N,142-33.52E,120,0.523,32.204
706,2021/2/27,11:45,42-06.59N,142-34.02E,120,0.531,32.1984
707,2021/2/27,11:46,42-06.39N,142-34.47E,120,0.542,32.2155
708,2021/2/27,11:47,42-06.19N,142-34.92E,120,0.556,32.21
709,2021/2/27,11:48,42-06.00N,142-35.35E,120,0.569,32.2091
710,2021/2/27,11:49,42-05.81N,142-35.80E,120,0.575,32.218
711,2021/2/27,11:50,42-05.64N,142-36.24E,117,0.575,32.2094
712,2021/2/27,11:51,42-05.48N,142-36.69E,115,0.574,32.2223
713,2021/2/27,11:52,42-05.33N,142-37.12E,114,0.568,32.2223
714,2021/2/27,11:53,42-05.16N,142-37.61E,114,0.558,32.2334
715,2021/2/27,11:54,42-05.00N,142-38.08E,114,0.522,32.2371
716,2021/2/27,11:55,42-04.85N,142-38.53E,114,0.479,32.245
717,2021/2/27,11:56,42-04.71N,142-38.94E,115,0.46,32.2431
718,2021/2/27,11:57,42-04.55N,142-39.40E,115,0.427,32.243
719,2021/2/27,11:58,42-04.39N,142-39.85E,114,0.43,32.2399
720,2021/2/27,11:59,42-04.23N,142-40.32E,115,0.398,32.2434
721,2021/2/27,12:00,42-04.08N,142-40.78E,114,0.379,32.2383
722,2021/2/27,12:01,42-03.90N,142-41.29E,114,0.358,32.2444
723,2021/2/27,12:02,42-03.77N,142-41.70E,114,0.362,32.2347
724,2021/2/27,12:03,42-03.59N,142-42.22E,114,0.354,32.2323
725,2021/2/27,12:04,42-03.43N,142-42.70E,114,0.326,32.2305
726,2021/2/27,12:05,42-03.28N,142-43.16E,114,0.299,32.2388
727,2021/2/27,12:06,42-03.12N,142-43.62E,114,0.299,32.2352
728,2021/2/27,12:07,42-02.96N,142-44.09E,114,0.308,32.2206
729,2021/2/27,12:08,42-02.80N,142-44.55E,114,0.308,32.2203
730,2021/2/27,12:09,42-02.64N,142-45.02E,114,0.293,32.2222
731,2021/2/27,12:10,42-02.49N,142-45.48E,114,0.307,32.2223
732,2021/2/27,12:11,42-02.33N,142-45.94E,113,0.289,32.2334
733,2021/2/27,12:12,42-02.17N,142-46.41E,116,0.267,32.2239
734,2021/2/27,12:13,42-01.99N,142-46.85E,118,0.248,32.2243
735,2021/2/27,12:14,42-01.81N,142-47.28E,119,0.232,32.218
736,2021/2/27,12:15,42-01.64N,142-47.68E,119,0.227,32.2209
737,2021/2/27,12:16,42-01.45N,142-48.13E,119,0.224,32.2185
738,2021/2/27,12:17,42-01.26N,142-48.58E,119,0.219,32.2041
739,2021/2/27,12:18,42-01.07N,142-49.02E,119,0.216,32.2038
740,2021/2/27,12:19,42-00.88N,142-49.47E,119,0.212,32.2066
741,2021/2/27,12:20,42-00.69N,142-49.91E,119,0.202,32.2028
742,2021/2/27,12:21,42-00.50N,142-50.36E,119,0.203,32.2062
743,2021/2/27,12:22,42-00.28N,142-50.88E,119,0.204,32.193
744,2021/2/27,12:23,42-00.10N,142-51.32E,118,0.196,32.2053
745,2021/2/27,12:24,41-59.91N,142-51.77E,118,0.197,32.2132
746,2021/2/27,12:25,41-59.74N,142-52.18E,119,0.193,32.2029
747,2021/2/27,12:26,41-59.56N,142-52.61E,119,0.188,32.2047
748,2021/2/27,12:27,41-59.36N,142-53.06E,120,0.187,32.2057
749,2021/2/27,12:28,41-59.16N,142-53.53E,119,0.185,32.2036
750,2021/2/27,12:29,41-58.96N,142-54.01E,119,0.186,32.2141
751,2021/2/27,12:30,41-58.77N,142-54.45E,119,0.176,32.2012
752,2021/2/27,12:31,41-58.58N,142-54.91E,119,0.175,32.2054
753,2021/2/27,12:32,41-58.39N,142-55.36E,119,0.176,32.2043
754,2021/2/27,12:33,41-58.20N,142-55.80E,119,0.174,32.1958
755,2021/2/27,12:34,41-58.01N,142-56.26E,119,0.174,32.1907
756,2021/2/27,12:35,41-57.82N,142-56.71E,119,0.155,32.1963
757,2021/2/27,12:36,41-57.63N,142-57.16E,119,0.14,32.1831
758,2021/2/27,12:37,41-57.43N,142-57.61E,119,0.158,32.1832
759,2021/2/27,12:38,41-57.25N,142-58.05E,118,0.162,32.1742
760,2021/2/27,12:39,41-57.06N,142-58.50E,118,0.179,32.1783
761,2021/2/27,12:40,41-56.87N,142-58.95E,119,0.188,32.1779
762,2021/2/27,12:41,41-56.67N,142-59.41E,119,0.207,32.1696
763,2021/2/27,12:42,41-56.48N,142-59.87E,119,0.232,32.1774
764,2021/2/27,12:43,41-56.29N,143-00.31E,119,0.256,32.1757
765,2021/2/27,12:44,41-56.12N,143-00.72E,119,0.264,32.1835
766,2021/2/27,12:45,41-55.93N,143-01.17E,120,0.295,32.1851
767,2021/2/27,12:46,41-55.73N,143-01.61E,120,0.403,32.1815
768,2021/2/27,12:47,41-55.54N,143-02.07E,119,0.49,32.1861
769,2021/2/27,12:48,41-55.35N,143-02.52E,119,0.537,32.1953
770,2021/2/27,12:49,41-55.15N,143-02.98E,119,0.564,32.2067
771,2021/2/27,12:50,41-54.93N,143-03.51E,119,0.609,32.2137
772,2021/2/27,12:51,41-54.76N,143-03.89E,119,0.627,32.2242
773,2021/2/27,12:52,41-54.54N,143-04.42E,119,0.645,32.2287
774,2021/2/27,12:53,41-54.34N,143-04.86E,120,0.667,32.2444
775,2021/2/27,12:54,41-54.17N,143-05.25E,120,0.694,32.2474
776,2021/2/27,12:55,41-53.97N,143-05.71E,120,0.735,32.2595
777,2021/2/27,12:56,41-53.79N,143-06.17E,116,0.801,32.2705
778,2021/2/27,12:57,41-53.62N,143-06.65E,115,0.854,32.277
779,2021/2/27,12:58,41-53.46N,143-07.12E,114,0.765,32.2959
780,2021/2/27,12:59,41-53.28N,143-07.66E,114,0.703,32.2949
781,2021/2/27,13:00,41-53.12N,143-08.15E,113,0.735,32.2687
782,2021/2/27,13:01,41-52.96N,143-08.62E,113,0.596,32.2604
783,2021/2/27,13:02,41-52.79N,143-09.10E,114,0.506,32.2441
784,2021/2/27,13:03,41-52.63N,143-09.57E,114,0.485,32.2218
785,2021/2/27,13:04,41-52.49N,143-09.99E,114,0.416,32.1973
786,2021/2/27,13:05,41-52.33N,143-10.46E,114,0.346,32.1734
787,2021/2/27,13:06,41-52.17N,143-10.93E,114,0.297,32.1593
788,2021/2/27,13:07,41-52.00N,143-11.41E,114,0.253,32.1428
789,2021/2/27,13:08,41-51.83N,143-11.89E,114,0.202,32.1345
790,2021/2/27,13:09,41-51.69N,143-12.43E,106,0.163,32.1336
791,2021/2/27,13:10,41-51.64N,143-12.95E,95,0.158,32.1223
792,2021/2/27,13:11,41-51.63N,143-13.45E,91,0.167,32.1158
793,2021/2/27,13:12,41-51.63N,143-13.98E,90,0.182,32.1009
794,2021/2/27,13:13,41-51.62N,143-14.48E,90,0.206,32.0986
795,2021/2/27,13:14,41-51.62N,143-14.93E,88,0.239,32.0912
796,2021/2/27,13:15,41-51.68N,143-15.42E,73,0.292,32.0831
797,2021/2/27,13:16,41-51.83N,143-15.86E,65,0.315,32.094
798,2021/2/27,13:17,41-52.01N,143-16.31E,60,0.315,32.1017
799,2021/2/27,13:18,41-52.20N,143-16.72E,57,0.303,32.1121
800,2021/2/27,13:19,41-52.40N,143-17.14E,57,0.272,32.1111
801,2021/2/27,13:20,41-52.61N,143-17.56E,53,0.278,32.0855
802,2021/2/27,13:21,41-52.85N,143-17.94E,49,0.286,32.0745
803,2021/2/27,13:22,41-53.11N,143-18.30E,45,0.285,32.068
804,2021/2/27,13:23,41-53.37N,143-18.64E,44,0.31,32.0686
805,2021/2/27,13:24,41-53.64N,143-18.99E,43,0.291,32.0652
806,2021/2/27,13:25,41-53.91N,143-19.35E,44,0.267,32.0552
807,2021/2/27,13:26,41-54.19N,143-19.72E,45,0.239,32.0622
808,2021/2/27,13:27,41-54.45N,143-20.09E,45,0.222,32.0502
809,2021/2/27,13:28,41-54.69N,143-20.41E,45,0.24,32.0338
810,2021/2/27,13:29,41-54.96N,143-20.77E,44,0.079,32.0264
811,2021/2/27,13:30,41-55.24N,143-21.11E,42,0.103,32.0482
812,2021/2/27,13:31,41-55.52N,143-21.44E,41,0.104,32.0699
813,2021/2/27,13:32,41-55.80N,143-21.76E,40,0.101,32.064
814,2021/2/27,13:33,41-56.09N,143-22.09E,40,0.104,32.0779
815,2021/2/27,13:34,41-56.40N,143-22.44E,40,0.082,32.0822
816,2021/2/27,13:35,41-56.66N,143-22.74E,40,0.066,32.0776
817,2021/2/27,13:36,41-56.98N,143-23.11E,40,0.053,32.0791
818,2021/2/27,13:37,41-57.26N,143-23.44E,40,0.026,32.0817
819,2021/2/27,13:38,41-57.54N,143-23.76E,40,0.016,32.082
820,2021/2/27,13:39,41-57.82N,143-24.09E,40,0.027,32.094
821,2021/2/27,13:40,41-58.11N,143-24.42E,41,0.07,32.0854
822,2021/2/27,13:41,41-58.35N,143-24.70E,40,0.056,32.0879
823,2021/2/27,13:42,41-58.64N,143-25.03E,40,0.058,32.087
824,2021/2/27,13:43,41-58.91N,143-25.35E,40,0.008,32.0888
825,2021/2/27,13:44,41-59.20N,143-25.67E,39,0.106,32.1186
826,2021/2/27,13:45,41-59.49N,143-25.99E,39,0.142,32.1544
827,2021/2/27,13:46,41-59.77N,143-26.30E,39,0.087,32.2002
828,2021/2/27,13:47,42-00.06N,143-26.62E,39,0.033,32.2107
829,2021/2/27,13:48,42-00.35N,143-26.94E,39,0.005,32.2025
830,2021/2/27,13:49,42-00.64N,143-27.25E,38,-0.022,32.2039
831,2021/2/27,13:50,42-00.94N,143-27.57E,38,-0.039,32.2035
832,2021/2/27,13:51,42-01.22N,143-27.88E,39,-0.046,32.1887
833,2021/2/27,13:52,42-01.52N,143-28.19E,39,-0.044,32.1873
834,2021/2/27,13:53,42-01.80N,143-28.51E,39,0.064,32.1803
835,2021/2/27,13:54,42-02.08N,143-28.82E,38,0.069,32.1701
836,2021/2/27,13:55,42-02.41N,143-29.18E,38,0.056,32.1827
837,2021/2/27,13:56,42-02.68N,143-29.47E,39,0.029,32.1824
838,2021/2/27,13:57,42-02.95N,143-29.76E,39,-0.021,32.1783
839,2021/2/27,13:58,42-03.24N,143-30.08E,39,-0.004,32.1785
840,2021/2/27,13:59,42-03.55N,143-30.42E,39,-0.035,32.167
841,2021/2/27,14:00,42-03.85N,143-30.75E,39,-0.022,32.1623
842,2021/2/27,14:01,42-04.14N,143-31.07E,39,-0.059,32.1578
843,2021/2/27,14:02,42-04.39N,143-31.35E,39,-0.061,32.1481
844,2021/2/27,14:03,42-04.71N,143-31.72E,39,-0.069,32.1489
845,2021/2/27,14:04,42-04.96N,143-32.00E,42,-0.066,32.1424
846,2021/2/27,14:05,42-05.27N,143-32.40E,43,-0.048,32.1362
847,2021/2/27,14:06,42-05.51N,143-32.71E,44,0.009,32.1345
848,2021/2/27,14:07,42-05.76N,143-33.03E,44,-0.065,32.1297
849,2021/2/27,14:08,42-06.03N,143-33.38E,45,-0.09,32.1291
850,2021/2/27,14:09,42-06.27N,143-33.72E,45,-0.109,32.1374
851,2021/2/27,14:10,42-06.52N,143-34.07E,45,-0.134,32.1347
852,2021/2/27,14:11,42-06.78N,143-34.41E,45,-0.143,32.1198
853,2021/2/27,14:12,42-07.03N,143-34.75E,44,-0.113,32.1295
854,2021/2/27,14:13,42-07.30N,143-35.09E,43,0.034,32.1424
855,2021/2/27,14:14,42-07.59N,143-35.45E,42,0.008,32.1692
856,2021/2/27,14:15,42-07.86N,143-35.77E,41,-0.05,32.2044
857,2021/2/27,14:16,42-08.13N,143-36.08E,40,-0.106,32.2162
858,2021/2/27,14:17,42-08.40N,143-36.39E,40,-0.134,32.1925
859,2021/2/27,14:18,42-08.63N,143-36.65E,40,-0.149,32.1622
860,2021/2/27,14:19,42-08.89N,143-36.94E,39,-0.174,32.146
861,2021/2/27,14:20,42-09.16N,143-37.24E,38,-0.186,32.1373
862,2021/2/27,14:21,42-09.43N,143-37.51E,35,-0.189,32.1335
863,2021/2/27,14:22,42-09.76N,143-37.80E,33,-0.187,32.1219
864,2021/2/27,14:23,42-10.05N,143-38.07E,33,-0.186,32.1128
865,2021/2/27,14:24,42-10.33N,143-38.32E,33,-0.181,32.1275
866,2021/2/27,14:25,42-10.63N,143-38.59E,33,-0.171,32.1277
867,2021/2/27,14:26,42-10.91N,143-38.84E,33,-0.17,32.1212
868,2021/2/27,14:27,42-11.20N,143-39.10E,33,-0.175,32.1345
869,2021/2/27,14:28,42-11.49N,143-39.38E,35,-0.173,32.1279
870,2021/2/27,14:29,42-11.77N,143-39.66E,36,-0.175,32.1148
871,2021/2/27,14:30,42-12.03N,143-39.91E,36,-0.184,32.1172
872,2021/2/27,14:31,42-12.30N,143-40.18E,37,-0.21,32.1204
873,2021/2/27,14:32,42-12.60N,143-40.49E,37,-0.231,32.0962
874,2021/2/27,14:33,42-12.87N,143-40.76E,37,-0.223,32.0998
875,2021/2/27,14:34,42-13.14N,143-41.04E,37,-0.215,32.1008
876,2021/2/27,14:35,42-13.43N,143-41.34E,37,-0.208,32.0894
877,2021/2/27,14:36,42-13.71N,143-41.62E,37,-0.206,32.0991
878,2021/2/27,14:37,42-14.03N,143-41.95E,37,-0.171,32.1001
879,2021/2/27,14:38,42-14.31N,143-42.25E,37,-0.169,32.108
880,2021/2/27,14:39,42-14.59N,143-42.54E,37,-0.129,32.1194
881,2021/2/27,14:40,42-14.88N,143-42.84E,37,-0.1,32.1306
882,2021/2/27,14:41,42-15.12N,143-43.10E,39,-0.053,32.1511
883,2021/2/27,14:42,42-15.38N,143-43.40E,40,0.045,32.1789
884,2021/2/27,14:43,42-15.66N,143-43.72E,40,0.126,32.2201
885,2021/2/27,14:44,42-15.92N,143-44.03E,40,0.139,32.2719
886,2021/2/27,14:45,42-16.24N,143-44.40E,40,0.138,32.2984
887,2021/2/27,14:46,42-16.51N,143-44.71E,40,0.154,32.318
888,2021/2/27,14:47,42-16.75N,143-44.99E,40,0.202,32.3377
889,2021/2/27,14:48,42-17.03N,143-45.31E,40,0.271,32.3554
890,2021/2/27,14:49,42-17.33N,143-45.66E,40,0.348,32.3755
891,2021/2/27,14:50,42-17.62N,143-45.99E,40,0.363,32.4079
892,2021/2/27,14:51,42-17.89N,143-46.30E,40,0.398,32.4374
893,2021/2/27,14:52,42-18.17N,143-46.62E,40,0.427,32.4586
894,2021/2/27,14:53,42-18.46N,143-46.92E,36,0.485,32.4716
895,2021/2/27,14:54,42-18.75N,143-47.20E,35,0.544,32.4957
896,2021/2/27,14:55,42-19.05N,143-47.48E,34,0.596,32.5237
897,2021/2/27,14:56,42-19.35N,143-47.73E,32,0.801,32.5383
898,2021/2/27,14:57,42-19.66N,143-47.99E,30,0.995,32.5664
899,2021/2/27,14:58,42-19.97N,143-48.24E,30,0.983,32.6172
900,2021/2/27,14:59,42-20.27N,143-48.48E,30,0.925,32.6411
901,2021/2/27,15:00,42-20.59N,143-48.73E,30,0.841,32.6588
902,2021/2/27,15:01,42-20.85N,143-48.94E,30,0.828,32.6511
903,2021/2/27,15:02,42-21.15N,143-49.18E,30,0.79,32.6516
904,2021/2/27,15:03,42-21.47N,143-49.43E,30,0.745,32.6316
905,2021/2/27,15:04,42-21.82N,143-49.69E,28,0.727,32.6362
906,2021/2/27,15:05,42-22.14N,143-49.92E,28,0.654,32.6227
907,2021/2/27,15:06,42-22.45N,143-50.14E,28,0.598,32.6187
908,2021/2/27,15:07,42-22.76N,143-50.37E,28,0.568,32.6
909,2021/2/27,15:08,42-23.08N,143-50.60E,28,0.558,32.5917
910,2021/2/27,15:09,42-23.39N,143-50.83E,28,0.596,32.5805
911,2021/2/27,15:10,42-23.71N,143-51.06E,27,0.708,32.5824
912,2021/2/27,15:11,42-24.02N,143-51.28E,27,0.745,32.5882
913,2021/2/27,15:12,42-24.33N,143-51.50E,27,0.718,32.5968
914,2021/2/27,15:13,42-24.65N,143-51.73E,27,0.689,32.6082
915,2021/2/27,15:14,42-24.96N,143-51.95E,27,0.653,32.6005
916,2021/2/27,15:15,42-25.28N,143-52.18E,27,0.64,32.5993
917,2021/2/27,15:16,42-25.55N,143-52.37E,27,0.641,32.5874
918,2021/2/27,15:17,42-25.86N,143-52.60E,28,0.707,32.5792
919,2021/2/27,15:18,42-26.17N,143-52.83E,27,0.823,32.5873
920,2021/2/27,15:19,42-26.49N,143-53.04E,27,0.892,32.6014
921,2021/2/27,15:20,42-26.81N,143-53.26E,27,0.912,32.6296
922,2021/2/27,15:21,42-27.16N,143-53.51E,27,0.868,32.6373
923,2021/2/27,15:22,42-27.49N,143-53.73E,27,0.754,32.6515
924,2021/2/27,15:23,42-27.79N,143-53.95E,27,0.707,32.6448
925,2021/2/27,15:24,42-28.07N,143-54.16E,27,0.667,32.6395
926,2021/2/27,15:25,42-28.40N,143-54.39E,27,0.634,32.6267
927,2021/2/27,15:26,42-28.73N,143-54.60E,27,0.59,32.6201
928,2021/2/27,15:27,42-29.03N,143-54.83E,27,0.57,32.6025
929,2021/2/27,15:28,42-29.36N,143-55.06E,27,0.518,32.6062
930,2021/2/27,15:29,42-29.67N,143-55.28E,27,0.468,32.5906
931,2021/2/27,15:30,42-30.00N,143-55.51E,27,0.41,32.5921
932,2021/2/27,15:31,42-30.31N,143-55.74E,27,0.413,32.5765
933,2021/2/27,15:32,42-30.64N,143-55.97E,27,0.417,32.5562
934,2021/2/27,15:33,42-30.95N,143-56.20E,27,0.38,32.5433
935,2021/2/27,15:34,42-31.27N,143-56.42E,27,0.328,32.5544
936,2021/2/27,15:35,42-31.59N,143-56.65E,27,0.316,32.5393
937,2021/2/27,15:36,42-31.91N,143-56.88E,27,0.285,32.5063
938,2021/2/27,15:37,42-32.23N,143-57.10E,27,0.285,32.498
939,2021/2/27,15:38,42-32.56N,143-57.33E,27,0.268,32.4912
940,2021/2/27,15:39,42-32.88N,143-57.55E,27,0.218,32.4655
941,2021/2/27,15:40,42-33.25N,143-57.81E,27,0.195,32.4653
942,2021/2/27,15:41,42-33.54N,143-58.01E,27,0.167,32.4594
943,2021/2/27,15:42,42-33.86N,143-58.23E,26,0.15,32.4319
944,2021/2/27,15:43,42-34.19N,143-58.46E,27,0.16,32.4281
945,2021/2/27,15:44,42-34.52N,143-58.68E,26,0.163,32.4312
946,2021/2/27,15:45,42-34.85N,143-58.90E,26,0.194,32.4075
947,2021/2/27,15:46,42-35.21N,143-59.15E,27,0.209,32.4179
948,2021/2/27,15:47,42-35.48N,143-59.34E,26,0.201,32.4246
949,2021/2/27,15:48,42-35.81N,143-59.57E,27,0.196,32.4135
950,2021/2/27,15:49,42-36.14N,143-59.79E,26,0.193,32.4113
951,2021/2/27,15:50,42-36.47N,144-00.02E,26,0.183,32.4138
952,2021/2/27,15:51,42-36.83N,144-00.26E,25,0.17,32.403
953,2021/2/27,15:52,42-37.11N,144-00.43E,25,0.154,32.4011
954,2021/2/27,15:53,42-37.43N,144-00.65E,26,0.133,32.3972
955,2021/2/27,15:54,42-37.74N,144-00.86E,26,0.114,32.3889
956,2021/2/27,15:55,42-38.11N,144-01.10E,26,0.165,32.3982
957,2021/2/27,15:56,42-38.38N,144-01.27E,26,0.197,32.4054
958,2021/2/27,15:57,42-38.71N,144-01.50E,26,0.189,32.4095
959,2021/2/27,15:58,42-39.03N,144-01.73E,26,0.225,32.4223
960,2021/2/27,15:59,42-39.34N,144-01.95E,27,0.229,32.4388
961,2021/2/27,16:00,42-39.66N,144-02.17E,26,0.321,32.4527
962,2021/2/27,16:01,42-39.99N,144-02.38E,26,0.341,32.4526
963,2021/2/27,16:02,42-40.31N,144-02.60E,26,0.349,32.4646
964,2021/2/27,16:03,42-40.65N,144-02.85E,27,0.317,32.4558
965,2021/2/27,16:04,42-40.95N,144-03.05E,27,0.278,32.4408
966,2021/2/27,16:05,42-41.25N,144-03.27E,27,0.236,32.4213
967,2021/2/27,16:06,42-41.58N,144-03.50E,27,0.268,32.4016